• In Belgium
  • List of Countries
  • For 7 days
  • Water Temperature
  • Satellite Maps
  • Weather Map
  • Weather Widgets
  • user-avatar
    Login

    Hourly Weather Abanto

    Today, 23 April, Monday

    Time Temperature Precipitation Wind Pressure Humidity
    00:00 +14°C° 0 mm 2 mps 682 mmHg 65%
    01:00 +14°C° 0 mm 1 mps 682 mmHg 65%
    02:00 +13°C° 0 mm 1 mps 682 mmHg 64%
    03:00 +13°C° 0 mm 1 mps 682 mmHg 64%
    04:00 +13°C° 0 mm 1 mps 682 mmHg 65%
    05:00 +13°C° 0 mm 1 mps 682 mmHg 65%
    06:00 +12°C° 0 mm 0 mps 682 mmHg 66%
    07:00 +15°C° 0 mm 1 mps 683 mmHg 59%
    08:00 +16°C° 0 mm 1 mps 683 mmHg 51%
    09:00 +19°C° 0 mm 1 mps 683 mmHg 44%
    10:00 +19°C° 0 mm 2 mps 683 mmHg 43%
    11:00 +20°C° 0 mm 2 mps 683 mmHg 43%
    12:00 +20°C° 0 mm 2 mps 683 mmHg 42%
    13:00 +21°C° 0 mm 3 mps 683 mmHg 42%
    14:00 +21°C° 0 mm 3 mps 683 mmHg 42%
    15:00 +21°C° 0 mm 4 mps 683 mmHg 42%
    16:00 +21°C° 0.1 mm 4 mps 683 mmHg 45%
    17:00 +20°C° 0.1 mm 4 mps 683 mmHg 48%
    18:00 +19°C° 0.1 mm 4 mps 683 mmHg 52%
    19:00 +18°C° 0.3 mm 3 mps 683 mmHg 56%
    20:00 +16°C° 0.3 mm 3 mps 683 mmHg 61%
    21:00 +15°C° 0.3 mm 2 mps 683 mmHg 66%
    22:00 +15°C° 0.2 mm 2 mps 683 mmHg 67%
    23:00 +14°C° 0.2 mm 2 mps 683 mmHg 68%

    Tomorrow, 24 April, Tuesday

    Time Temperature Precipitation Wind Pressure Humidity
    00:00 +14°C° 0.2 mm 2 mps 683 mmHg 69%
    01:00 +14°C° 0 mm 2 mps 682 mmHg 69%
    02:00 +14°C° 0 mm 2 mps 682 mmHg 69%
    03:00 +13°C° 0 mm 2 mps 682 mmHg 69%
    04:00 +13°C° 0 mm 2 mps 682 mmHg 69%
    05:00 +13°C° 0 mm 2 mps 682 mmHg 69%
    06:00 +13°C° 0 mm 2 mps 682 mmHg 69%
    07:00 +14°C° 0 mm 3 mps 682 mmHg 60%
    08:00 +17°C° 0 mm 3 mps 683 mmHg 50%
    09:00 +19°C° 0 mm 4 mps 683 mmHg 41%
    10:00 +20°C° 0 mm 4 mps 683 mmHg 38%
    11:00 +21°C° 0 mm 5 mps 683 mmHg 34%
    12:00 +23°C° 0 mm 5 mps 684 mmHg 31%
    13:00 +22°C° 0.1 mm 5 mps 683 mmHg 32%
    14:00 +22°C° 0.1 mm 5 mps 683 mmHg 34%
    15:00 +22°C° 0.1 mm 5 mps 682 mmHg 35%
    16:00 +21°C° 0 mm 4 mps 682 mmHg 39%
    17:00 +20°C° 0 mm 3 mps 682 mmHg 43%
    18:00 +19°C° 0 mm 3 mps 682 mmHg 47%
    19:00 +18°C° 0 mm 2 mps 682 mmHg 49%
    20:00 +17°C° 0 mm 2 mps 682 mmHg 51%
    21:00 +16°C° 0 mm 2 mps 682 mmHg 53%
    22:00 +15°C° 0 mm 2 mps 682 mmHg 54%
    23:00 +14°C° 0 mm 2 mps 682 mmHg 54%

    Day after tomorrow, 25 April, Wednesday

    Time Temperature Precipitation Wind Pressure Humidity
    00:00 +13°C° 0 mm 1 mps 681 mmHg 55%
    01:00 +13°C° 0 mm 1 mps 681 mmHg 53%
    02:00 +13°C° 0 mm 1 mps 681 mmHg 52%
    03:00 +13°C° 0 mm 2 mps 681 mmHg 50%
    04:00 +13°C° 0 mm 2 mps 681 mmHg 51%
    05:00 +13°C° 0 mm 2 mps 681 mmHg 51%
    06:00 +13°C° 0 mm 2 mps 681 mmHg 52%
    07:00 +13°C° 0 mm 3 mps 681 mmHg 47%
    08:00 +16°C° 0 mm 3 mps 682 mmHg 43%
    09:00 +18°C° 0 mm 4 mps 682 mmHg 38%
    10:00 +17°C° 0 mm 5 mps 682 mmHg 39%
    11:00 +19°C° 0 mm 5 mps 682 mmHg 39%
    12:00 +19°C° 0 mm 5 mps 683 mmHg 39%
    13:00 +19°C° 0.1 mm 5 mps 682 mmHg 42%
    14:00 +19°C° 0.1 mm 5 mps 682 mmHg 44%
    15:00 +19°C° 0.1 mm 5 mps 682 mmHg 47%
    16:00 +18°C° 0 mm 4 mps 682 mmHg 51%
    17:00 +18°C° 0 mm 4 mps 682 mmHg 56%
    18:00 +17°C° 0 mm 4 mps 682 mmHg 60%
    19:00 +15°C° 0 mm 5 mps 682 mmHg 66%
    20:00 +13°C° 0 mm 5 mps 682 mmHg 73%
    21:00 +11°C° 0 mm 6 mps 682 mmHg 79%
    22:00 +10°C° 0.1 mm 6 mps 682 mmHg 81%
    23:00 +9°C° 0.1 mm 5 mps 682 mmHg 82%

    26 April, Thursday

    Time Temperature Precipitation Wind Pressure Humidity
    00:00 +8°C° 0.1 mm 5 mps 682 mmHg 84%
    01:00 +8°C° 0.1 mm 5 mps 682 mmHg 84%
    02:00 +8°C° 0.1 mm 5 mps 682 mmHg 85%
    03:00 +8°C° 0.1 mm 5 mps 682 mmHg 85%
    04:00 +8°C° 0 mm 5 mps 681 mmHg 85%
    05:00 +8°C° 0 mm 5 mps 681 mmHg 85%
    06:00 +8°C° 0 mm 5 mps 681 mmHg 86%
    07:00 +9°C° 0 mm 5 mps 681 mmHg 78%
    08:00 +10°C° 0 mm 5 mps 682 mmHg 70%
    09:00 +12°C° 0 mm 5 mps 682 mmHg 63%
    10:00 +13°C° 0 mm 5 mps 682 mmHg 57%
    11:00 +15°C° 0 mm 5 mps 682 mmHg 52%
    12:00 +16°C° 0 mm 5 mps 682 mmHg 46%
    13:00 +17°C° 0 mm 5 mps 681 mmHg 45%
    14:00 +17°C° 0 mm 5 mps 681 mmHg 44%
    15:00 +19°C° 0 mm 5 mps 681 mmHg 42%
    16:00 +18°C° 0 mm 4 mps 681 mmHg 45%
    17:00 +17°C° 0 mm 4 mps 680 mmHg 48%
    18:00 +15°C° 0 mm 4 mps 680 mmHg 51%
    19:00 +13°C° 0 mm 3 mps 680 mmHg 57%
    20:00 +13°C° 0 mm 2 mps 680 mmHg 63%
    21:00 +10°C° 0 mm 2 mps 680 mmHg 69%
    22:00 +11°C° 0 mm 1 mps 680 mmHg 72%
    23:00 +11°C° 0 mm 1 mps 679 mmHg 74%

    27 April, Friday

    Time Temperature Precipitation Wind Pressure Humidity
    00:00 +10°C° 0 mm 1 mps 679 mmHg 77%
    01:00 +10°C° 0 mm 1 mps 678 mmHg 79%
    02:00 +9°C° 0 mm 2 mps 678 mmHg 82%
    03:00 +9°C° 0 mm 2 mps 678 mmHg 85%
    04:00 +9°C° 0 mm 2 mps 677 mmHg 84%
    05:00 +10°C° 0 mm 2 mps 677 mmHg 84%
    06:00 +10°C° 0 mm 2 mps 677 mmHg 84%
    07:00 +12°C° 0.1 mm 3 mps 677 mmHg 75%
    08:00 +15°C° 0.1 mm 4 mps 677 mmHg 66%
    09:00 +17°C° 0.1 mm 5 mps 677 mmHg 57%
    10:00 +19°C° 0.3 mm 6 mps 677 mmHg 53%
    11:00 +20°C° 0.3 mm 6 mps 677 mmHg 48%
    12:00 +21°C° 0.3 mm 7 mps 677 mmHg 43%
    13:00 +21°C° 0.1 mm 7 mps 676 mmHg 43%
    14:00 +21°C° 0.1 mm 7 mps 676 mmHg 42%
    15:00 +21°C° 0.1 mm 7 mps 676 mmHg 41%
    16:00 +20°C° 0 mm 6 mps 676 mmHg 43%
    17:00 +19°C° 0 mm 6 mps 676 mmHg 45%
    18:00 +17°C° 0 mm 5 mps 676 mmHg 47%
    19:00 +15°C° 0 mm 5 mps 676 mmHg 51%
    20:00 +13°C° 0 mm 5 mps 676 mmHg 54%
    21:00 +10°C° 0 mm 5 mps 676 mmHg 58%
    22:00 +10°C° 0 mm 4 mps 676 mmHg 61%
    23:00 +8°C° 0 mm 4 mps 676 mmHg 65%

    28 April, Saturday

    Time Temperature Precipitation Wind Pressure Humidity
    00:00 +8°C° 0 mm 3 mps 676 mmHg 68%
    01:00 +7°C° 0 mm 3 mps 676 mmHg 70%
    02:00 +7°C° 0 mm 3 mps 676 mmHg 72%
    03:00 +6°C° 0 mm 2 mps 675 mmHg 75%
    04:00 +6°C° 0 mm 2 mps 675 mmHg 76%
    05:00 +6°C° 0 mm 2 mps 676 mmHg 77%
    06:00 +6°C° 0 mm 2 mps 676 mmHg 78%
    07:00 +7°C° 0 mm 3 mps 676 mmHg 72%
    08:00 +9°C° 0 mm 3 mps 676 mmHg 66%
    09:00 +10°C° 0 mm 3 mps 677 mmHg 60%
    10:00 +11°C° 0.1 mm 3 mps 677 mmHg 56%
    11:00 +11°C° 0.1 mm 4 mps 677 mmHg 53%
    12:00 +12°C° 0.1 mm 4 mps 676 mmHg 49%
    13:00 +12°C° 0.5 mm 4 mps 676 mmHg 48%
    14:00 +13°C° 0.5 mm 5 mps 676 mmHg 48%
    15:00 +13°C° 0.5 mm 6 mps 676 mmHg 47%
    16:00 +13°C° 0.1 mm 6 mps 676 mmHg 47%
    17:00 +11°C° 0.1 mm 7 mps 676 mmHg 46%
    18:00 +11°C° 0.1 mm 7 mps 676 mmHg 46%
    19:00 +9°C° 0 mm 6 mps 677 mmHg 51%
    20:00 +8°C° 0 mm 5 mps 677 mmHg 56%
    21:00 +7°C° 0 mm 5 mps 677 mmHg 61%
    22:00 +6°C° 0 mm 5 mps 677 mmHg 65%
    23:00 +5°C° 0 mm 5 mps 677 mmHg 68%
    Show more